Date,Installs,Update checks
2018-07-22,1,0
2018-07-23,1,0
2018-07-24,4,1
2018-07-25,2,0
2018-07-26,2,3
2018-07-27,1,0
2018-07-28,1,0
2018-07-29,1,0
2018-07-30,2,0
2018-07-31,2,1
2018-08-01,0,1
2018-08-02,0,0
2018-08-03,3,1
2018-08-04,2,1
2018-08-05,1,3
2018-08-06,0,0
2018-08-07,1,0
2018-08-08,0,1
2018-08-09,0,3
2018-08-10,0,1
2018-08-11,2,2
2018-08-12,1,2
2018-08-13,1,3
2018-08-14,0,3
2018-08-15,0,1
2018-08-16,0,3
2018-08-17,0,4
2018-08-18,1,2
2018-08-19,1,6
2018-08-20,0,1
2018-08-21,0,1
2018-08-22,1,0
2018-08-23,1,1
2018-08-24,2,1
2018-08-25,0,2
2018-08-26,1,3
2018-08-27,1,3
2018-08-28,0,0
2018-08-29,0,3
2018-08-30,2,5
2018-08-31,2,5
2018-09-01,1,7
2018-09-02,2,3
2018-09-03,1,7
2018-09-04,3,7
2018-09-05,2,7
2018-09-06,1,4
2018-09-07,0,5
2018-09-08,2,8
2018-09-09,0,5
2018-09-10,0,5
2018-09-11,0,4
2018-09-12,0,6
2018-09-13,0,8
2018-09-14,0,6
2018-09-15,0,9
2018-09-16,2,7
2018-09-17,1,5
2018-09-18,0,7
2018-09-19,1,8
2018-09-20,0,10
2018-09-21,0,9
2018-09-22,0,8
2018-09-23,1,7
2018-09-24,1,6
2018-09-25,0,8
2018-09-26,1,5
2018-09-27,1,9
2018-09-28,0,11
2018-09-29,0,6
2018-09-30,1,10
2018-10-01,1,9
2018-10-02,0,9
2018-10-03,0,7
2018-10-04,0,9
2018-10-05,1,6
2018-10-06,0,8
2018-10-07,0,7
2018-10-08,0,9
2018-10-09,1,9
2018-10-10,1,9
2018-10-11,2,10
2018-10-12,0,14
2018-10-13,0,10
2018-10-14,0,16
2018-10-15,0,12
2018-10-16,1,10
2018-10-17,0,8
2018-10-18,1,13
2018-10-19,0,11
2018-10-20,0,13
2018-10-21,0,8
2018-10-22,0,10
2018-10-23,0,11
2018-10-24,0,9
2018-10-25,0,12
2018-10-26,2,10
2018-10-27,1,9
2018-10-28,1,9
2018-10-29,1,9
2018-10-30,0,11
2018-10-31,1,8
2018-11-01,2,13
2018-11-02,0,7
2018-11-03,0,11
2018-11-04,0,7
2018-11-05,0,8
2018-11-06,0,10
2018-11-07,0,13
2018-11-08,0,12
2018-11-09,0,11
2018-11-10,0,11
2018-11-11,0,8
2018-11-12,1,8
2018-11-13,1,12
2018-11-14,0,8
2018-11-15,0,9
2018-11-16,0,11
2018-11-17,0,8
2018-11-18,1,10
2018-11-19,1,10
2018-11-20,1,7
2018-11-21,0,9
2018-11-22,0,8
2018-11-23,0,11
2018-11-24,0,7
2018-11-25,0,11
2018-11-26,0,11
2018-11-27,0,12
2018-11-28,1,9
2018-11-29,3,10
2018-11-30,1,16
2018-12-01,0,9
2018-12-02,0,11
2018-12-03,0,12
2018-12-04,0,12
2018-12-05,0,10
2018-12-06,0,12
2018-12-07,1,12
2018-12-08,0,9
2018-12-09,0,12
2018-12-10,1,12
2018-12-11,0,13
2018-12-12,0,10
2018-12-13,1,10
2018-12-14,0,9
2018-12-15,0,12
2018-12-16,1,12
2018-12-17,0,16
2018-12-18,2,10
2018-12-19,0,16
2018-12-20,0,15
2018-12-21,1,20
2018-12-22,1,13
2018-12-23,1,17
2018-12-24,1,13
2018-12-25,0,14
2018-12-26,1,14
2018-12-27,1,14
2018-12-28,1,17
2018-12-29,1,19
2018-12-30,0,11
2018-12-31,1,18
2019-01-01,0,20
2019-01-02,0,19
2019-01-03,0,16
2019-01-04,1,12
2019-01-05,0,15
2019-01-06,2,16
2019-01-07,0,15
2019-01-08,0,18
2019-01-09,0,9
2019-01-10,0,21
2019-01-11,0,14
2019-01-12,1,19
2019-01-13,1,17
2019-01-14,0,22
2019-01-15,0,20
2019-01-16,1,20
2019-01-17,0,14
2019-01-18,0,20
2019-01-19,1,22
2019-01-20,2,18
2019-01-21,1,18
2019-01-22,0,18
2019-01-23,0,12
2019-01-24,0,16
2019-01-25,0,17
2019-01-26,0,15
2019-01-27,0,19
2019-01-28,1,12
2019-01-29,0,18
2019-01-30,0,10
2019-01-31,0,15
2019-02-01,1,16
2019-02-02,1,19
2019-02-03,1,18
2019-02-04,1,21
2019-02-05,0,16
2019-02-06,0,14
2019-02-07,0,17
2019-02-08,0,19
2019-02-09,1,24
2019-02-10,1,17
2019-02-11,2,18
2019-02-12,1,17
2019-02-13,2,28
2019-02-14,0,15
2019-02-15,0,14
2019-02-16,1,22
2019-02-17,0,8
2019-02-18,0,17
2019-02-19,1,17
2019-02-20,1,15
2019-02-21,0,18
2019-02-22,1,18
2019-02-23,0,12
2019-02-24,1,19
2019-02-25,0,14
2019-02-26,0,16
2019-02-27,0,19
2019-02-28,0,16
2019-03-01,0,23
2019-03-02,0,24
2019-03-03,0,17
2019-03-04,0,13
2019-03-05,0,16
2019-03-06,0,17
2019-03-07,0,17
2019-03-08,0,19
2019-03-09,0,17
2019-03-10,0,17
2019-03-11,0,16
2019-03-12,1,15
2019-03-13,0,25
2019-03-14,1,17
2019-03-15,0,11
2019-03-16,1,25
2019-03-17,0,19
2019-03-18,0,18
2019-03-19,0,14
2019-03-20,1,20
2019-03-21,0,18
2019-03-22,0,22
2019-03-23,1,15
2019-03-24,2,16
2019-03-25,1,25
2019-03-26,0,16
2019-03-27,0,19
2019-03-28,0,20
2019-03-29,1,23
2019-03-30,1,20
2019-03-31,0,25
2019-04-01,0,19
2019-04-02,0,23
2019-04-03,0,21
2019-04-04,1,24
2019-04-05,1,20
2019-04-06,0,31
2019-04-07,1,24
2019-04-08,0,24
2019-04-09,0,21
2019-04-10,0,19
2019-04-11,0,23
2019-04-12,1,24
2019-04-13,0,29
2019-04-14,0,19
2019-04-15,0,24
2019-04-16,0,17
2019-04-17,2,25
2019-04-18,0,27
2019-04-19,0,23
2019-04-20,0,21
2019-04-21,1,19
2019-04-22,1,15
2019-04-23,0,20
2019-04-24,0,20
2019-04-25,0,25
2019-04-26,0,26
2019-04-27,0,22
2019-04-28,0,28
2019-04-29,5,28
2019-04-30,0,20
2019-05-01,1,25
2019-05-02,0,24
2019-05-03,0,24
2019-05-04,1,25
2019-05-05,1,27
2019-05-06,1,20
2019-05-07,0,24
2019-05-08,1,25
2019-05-09,0,19
2019-05-10,1,18
2019-05-11,2,23
2019-05-12,3,22
2019-05-13,2,23
2019-05-14,0,20
2019-05-15,0,19
2019-05-16,0,16
2019-05-17,0,21
2019-05-18,2,17
2019-05-19,1,16
2019-05-20,1,18
2019-05-21,2,19
2019-05-22,1,17
2019-05-23,1,20
2019-05-24,0,19
2019-05-25,0,21
2019-05-26,1,17
2019-05-27,0,20
2019-05-28,0,25
2019-05-29,0,22
2019-05-30,1,22
2019-05-31,0,19
2019-06-01,0,19
2019-06-02,0,19
2019-06-03,0,17
2019-06-04,0,21
2019-06-05,0,15
2019-06-06,0,21
2019-06-07,0,21
2019-06-08,0,21
2019-06-09,2,21
2019-06-10,0,16
2019-06-11,2,15
2019-06-12,1,20
2019-06-13,0,20
2019-06-14,1,26
2019-06-15,1,24
2019-06-16,1,15
2019-06-17,0,13
2019-06-18,0,14
2019-06-19,0,14
2019-06-20,0,13
2019-06-21,0,19
2019-06-22,0,19
2019-06-23,1,18
2019-06-24,0,17
2019-06-25,0,17
2019-06-26,2,14
2019-06-27,0,18
2019-06-28,0,13
2019-06-29,0,17
2019-06-30,1,16
2019-07-01,1,18
2019-07-02,1,13
2019-07-03,0,19
2019-07-04,2,19
2019-07-05,0,22
2019-07-06,0,21
2019-07-07,0,15
2019-07-08,0,13
2019-07-09,0,17
2019-07-10,0,15
2019-07-11,1,14
2019-07-12,0,13
2019-07-13,0,18
2019-07-14,0,20
2019-07-15,2,14
2019-07-16,0,10
2019-07-17,0,14
2019-07-18,1,13
2019-07-19,0,16
2019-07-20,0,15
2019-07-21,0,18
2019-07-22,0,16
2019-07-23,1,14
2019-07-24,0,12
2019-07-25,1,12
2019-07-26,4,16
2019-07-27,4,17
2019-07-28,4,15
2019-07-29,1,19
2019-07-30,5,18
2019-07-31,2,21
2019-08-01,2,19
2019-08-02,2,13
2019-08-03,1,24
2019-08-04,0,17
2019-08-05,0,19
2019-08-06,1,21
2019-08-07,0,22
2019-08-08,0,21
2019-08-09,1,25
2019-08-10,3,22
2019-08-11,1,23
2019-08-12,2,21
2019-08-13,0,20
2019-08-14,2,24
2019-08-15,0,22
2019-08-16,1,26
2019-08-17,0,22
2019-08-18,0,21
2019-08-19,0,21
2019-08-20,0,16
2019-08-21,0,25
2019-08-22,0,20
2019-08-23,0,22
2019-08-24,0,29
2019-08-25,0,21
2019-08-26,1,19
2019-08-27,1,16
2019-08-28,1,19
2019-08-29,0,23
2019-08-30,0,28
2019-08-31,0,21
2019-09-01,0,26
2019-09-02,2,25
2019-09-03,2,23
2019-09-04,1,25
2019-09-05,0,23
2019-09-06,0,26
2019-09-07,0,27
2019-09-08,0,26
2019-09-09,0,25
2019-09-10,0,23
2019-09-11,0,28
2019-09-12,1,19
2019-09-13,0,19
2019-09-14,1,24
2019-09-15,3,26
2019-09-16,1,23
2019-09-17,0,25
2019-09-18,0,19
2019-09-19,0,26
2019-09-20,2,18
2019-09-21,0,26
2019-09-22,0,30
2019-09-23,0,22
2019-09-24,1,23
2019-09-25,0,23
2019-09-26,0,32
2019-09-27,1,30
2019-09-28,0,26
2019-09-29,0,26
2019-09-30,1,23
2019-10-01,0,20
2019-10-02,0,22
2019-10-03,0,17
2019-10-04,0,32
2019-10-05,0,26
2019-10-06,0,33
2019-10-07,0,30
2019-10-08,1,26
2019-10-09,0,24
2019-10-10,0,23
2019-10-11,0,19
2019-10-12,0,20
2019-10-13,0,27
2019-10-14,1,21
2019-10-15,2,22
2019-10-16,1,29
2019-10-17,0,21
2019-10-18,0,21
2019-10-19,0,27
2019-10-20,1,25
2019-10-21,1,19
2019-10-22,1,27
2019-10-23,0,30
2019-10-24,1,23
2019-10-25,1,22
2019-10-26,1,21
2019-10-27,0,22
2019-10-28,0,21
2019-10-29,0,21
2019-10-30,1,23
2019-10-31,0,20
2019-11-01,1,28
2019-11-02,0,24
2019-11-03,0,25
2019-11-04,1,20
2019-11-05,0,15
2019-11-06,0,20
2019-11-07,1,25
2019-11-08,0,25
2019-11-09,0,20
2019-11-10,1,21
2019-11-11,0,25
2019-11-12,1,25
2019-11-13,0,14
2019-11-14,0,22
2019-11-15,1,25
2019-11-16,1,19
2019-11-17,0,21
2019-11-18,0,28
2019-11-19,0,20
2019-11-20,1,24
2019-11-21,2,20
2019-11-22,0,20
2019-11-23,0,18
2019-11-24,0,19
2019-11-25,0,23
2019-11-26,0,22
2019-11-27,0,16
2019-11-28,1,22
2019-11-29,0,25
2019-11-30,1,25
2019-12-01,0,19
2019-12-02,0,22
2019-12-03,0,15
2019-12-04,0,20
2019-12-05,0,23
2019-12-06,0,20
2019-12-07,0,19
2019-12-08,1,25
2019-12-09,1,30
2019-12-10,0,22
2019-12-11,0,22
2019-12-12,0,25
2019-12-13,1,28
2019-12-14,1,32
2019-12-15,1,24
2019-12-16,1,37
2019-12-17,1,25
2019-12-18,1,32
2019-12-19,3,33
2019-12-20,0,29
2019-12-21,0,29
2019-12-22,1,29
2019-12-23,1,30
2019-12-24,0,30
2019-12-25,1,22
2019-12-26,1,26
2019-12-27,0,18
2019-12-28,0,30
2019-12-29,0,32
2019-12-30,0,22
2019-12-31,0,32
2020-01-01,0,27
2020-01-02,0,32
2020-01-03,0,24
2020-01-04,0,26
2020-01-05,1,24
2020-01-06,0,21
2020-01-07,0,29
2020-01-08,1,39
2020-01-09,1,36
2020-01-10,0,31
2020-01-11,1,24
2020-01-12,0,30
2020-01-13,1,24
2020-01-14,0,28
2020-01-15,1,31
2020-01-16,2,33
2020-01-17,0,23
2020-01-18,3,36
2020-01-19,3,34
2020-01-20,3,34
2020-01-21,1,28
2020-01-22,1,33
2020-01-23,0,33
2020-01-24,1,34
2020-01-25,0,31
2020-01-26,0,35
2020-01-27,0,34
2020-01-28,1,34
2020-01-29,2,37
2020-01-30,0,41
2020-01-31,1,39
2020-02-01,1,44
2020-02-02,2,35
2020-02-03,0,39
2020-02-04,2,33
2020-02-05,1,41
2020-02-06,0,42
2020-02-07,0,33
2020-02-08,1,14
2020-02-09,0,18
2020-02-10,1,49
2020-02-11,0,34
2020-02-12,1,46
2020-02-13,0,41
2020-02-14,0,44
2020-02-15,0,48
2020-02-16,0,38
2020-02-17,3,36
2020-02-18,0,34
2020-02-19,1,42
2020-02-20,0,33
2020-02-21,0,38
2020-02-22,2,40
2020-02-23,2,36
2020-02-24,0,33
2020-02-25,0,38
2020-02-26,0,29
2020-02-27,1,35
2020-02-28,1,30
2020-02-29,1,36
2020-03-01,1,37
2020-03-02,0,35
2020-03-03,0,36
2020-03-04,0,31
2020-03-05,0,34
2020-03-06,0,32
2020-03-07,0,45
2020-03-08,1,36
2020-03-09,3,44
2020-03-10,2,36
2020-03-11,2,46
2020-03-12,0,39
2020-03-13,0,37
2020-03-14,0,41
2020-03-15,0,35
2020-03-16,0,51
2020-03-17,0,40
2020-03-18,1,34
2020-03-19,0,40
2020-03-20,0,40
2020-03-21,0,39
2020-03-22,0,34
2020-03-23,0,34
2020-03-24,1,38
2020-03-25,2,40
2020-03-26,1,44
2020-03-27,0,35
2020-03-28,1,39
2020-03-29,0,32
2020-03-30,0,35
2020-03-31,1,35
2020-04-01,1,34
2020-04-02,0,39
2020-04-03,0,41
2020-04-04,1,45
2020-04-05,2,35
2020-04-06,2,34
2020-04-07,2,38
2020-04-08,0,43
2020-04-09,2,45
2020-04-10,0,39
2020-04-11,0,40
2020-04-12,1,38
2020-04-13,0,44
2020-04-14,0,42
2020-04-15,0,34
2020-04-16,0,45
2020-04-17,1,34
2020-04-18,2,49
2020-04-19,0,40
2020-04-20,0,39
2020-04-21,0,40
2020-04-22,0,42
2020-04-23,2,42
2020-04-24,0,49
2020-04-25,0,34
2020-04-26,1,42
2020-04-27,0,40
2020-04-28,1,42
2020-04-29,2,40
2020-04-30,0,43
2020-05-01,0,36
2020-05-02,0,43
2020-05-03,2,36
2020-05-04,1,41
2020-05-05,1,37
2020-05-06,3,41
2020-05-07,0,43
2020-05-08,0,46
2020-05-09,0,40
2020-05-10,2,49
2020-05-11,2,42
2020-05-12,0,44
2020-05-13,0,43
2020-05-14,0,44
2020-05-15,1,41
2020-05-16,0,41
2020-05-17,1,42
2020-05-18,1,47
2020-05-19,1,51
2020-05-20,1,43
2020-05-21,1,39
2020-05-22,0,50
2020-05-23,0,46
2020-05-24,0,55
2020-05-25,0,42
2020-05-26,0,41
2020-05-27,0,44
2020-05-28,2,49
2020-05-29,0,46
2020-05-30,2,51
2020-05-31,0,52
2020-06-01,0,45
2020-06-02,0,36
2020-06-03,1,52
2020-06-04,0,50
2020-06-05,0,49
2020-06-06,1,52
2020-06-07,1,37
2020-06-08,1,45
2020-06-09,0,40
2020-06-10,0,47
2020-06-11,1,40
2020-06-12,1,51
2020-06-13,2,48
2020-06-14,1,46
2020-06-15,0,45
2020-06-16,0,52
2020-06-17,0,49
2020-06-18,0,46
2020-06-19,0,37
2020-06-20,1,42
2020-06-21,0,45
2020-06-22,0,36
2020-06-23,2,48
2020-06-24,2,39
2020-06-25,2,48
2020-06-26,0,39
2020-06-27,2,39
2020-06-28,1,40
2020-06-29,0,44
2020-06-30,0,40
2020-07-01,0,39
2020-07-02,0,41
2020-07-03,0,45
2020-07-04,0,40
2020-07-05,0,33
2020-07-06,0,44
2020-07-07,1,43
2020-07-08,0,41
2020-07-09,0,43
2020-07-10,0,44
2020-07-11,1,47
2020-07-12,2,39
2020-07-13,1,40
2020-07-14,0,43
2020-07-15,0,41
2020-07-16,1,43
2020-07-17,2,42
2020-07-18,0,43
2020-07-19,1,43
2020-07-20,2,38
2020-07-21,2,46
2020-07-22,0,39
2020-07-23,0,41
2020-07-24,0,34
2020-07-25,0,38
2020-07-26,0,35
2020-07-27,0,43
2020-07-28,0,44
2020-07-29,0,36
2020-07-30,0,45
2020-07-31,0,35
2020-08-01,0,39
2020-08-02,0,44
2020-08-03,0,35
2020-08-04,0,41
2020-08-05,0,34
2020-08-06,0,41
2020-08-07,0,35
2020-08-08,1,38
2020-08-09,2,42
2020-08-10,1,36
2020-08-11,1,37
2020-08-12,0,40
2020-08-13,0,35
2020-08-14,0,37
2020-08-15,0,37
2020-08-16,2,36
2020-08-17,0,41
2020-08-18,1,39
2020-08-19,0,36
2020-08-20,2,40
2020-08-21,0,44
2020-08-22,1,29
2020-08-23,0,39
2020-08-24,0,42
2020-08-25,0,40
2020-08-26,0,39
2020-08-27,0,35
2020-08-28,0,36
2020-08-29,0,41
2020-08-30,0,34
2020-08-31,0,39
2020-09-01,0,40
2020-09-02,0,35
2020-09-03,0,37
2020-09-04,0,42
2020-09-05,0,45
2020-09-06,0,41
2020-09-07,0,42
2020-09-08,0,37
2020-09-09,0,40
2020-09-10,0,33
2020-09-11,0,38
2020-09-12,1,38
2020-09-13,0,36
2020-09-14,0,42
2020-09-15,0,41
2020-09-16,0,42
2020-09-17,0,34
2020-09-18,0,32
2020-09-19,0,39
2020-09-20,0,36
2020-09-21,2,36
2020-09-22,0,37
2020-09-23,0,48
2020-09-24,1,41
2020-09-25,2,38
2020-09-26,3,43
2020-09-27,1,37
2020-09-28,1,42
2020-09-29,0,36
2020-09-30,1,38
2020-10-01,1,36
2020-10-02,0,34
2020-10-03,0,35
2020-10-04,1,32
2020-10-05,0,36
2020-10-06,0,45
2020-10-07,1,32
2020-10-08,1,32
2020-10-09,0,40
2020-10-10,0,30
2020-10-11,3,35
2020-10-12,0,43
2020-10-13,1,38
2020-10-14,0,34
2020-10-15,0,42
2020-10-16,0,35
2020-10-17,2,41
2020-10-18,2,34
2020-10-19,1,33
2020-10-20,0,36
2020-10-21,1,30
2020-10-22,0,37
2020-10-23,2,34
2020-10-24,0,35
2020-10-25,0,36
2020-10-26,0,33
2020-10-27,0,34
2020-10-28,0,43
2020-10-29,0,36
2020-10-30,1,33
2020-10-31,0,39
2020-11-01,0,37
2020-11-02,0,38
2020-11-03,0,36
2020-11-04,0,41
2020-11-05,0,39
2020-11-06,1,35
2020-11-07,2,38
2020-11-08,1,26
2020-11-09,1,41
2020-11-10,0,36
2020-11-11,0,34
2020-11-12,0,37
2020-11-13,0,44
2020-11-14,1,36
2020-11-15,1,34
2020-11-16,1,40
2020-11-17,0,35
2020-11-18,0,37
2020-11-19,0,40
2020-11-20,1,39
2020-11-21,0,42
2020-11-22,0,42
2020-11-23,0,43
2020-11-24,0,36
2020-11-25,0,39
2020-11-26,0,36
2020-11-27,0,36
2020-11-28,0,40
2020-11-29,0,39
2020-11-30,0,38
2020-12-01,2,40
2020-12-02,0,39
2020-12-03,0,39
2020-12-04,0,40
2020-12-05,1,48
2020-12-06,0,34
2020-12-07,1,44
2020-12-08,0,45
2020-12-09,1,45
2020-12-10,0,42
2020-12-11,2,38
2020-12-12,0,40
2020-12-13,0,38
2020-12-14,0,35
2020-12-15,2,38
2020-12-16,0,33
2020-12-17,2,42
2020-12-18,1,42
2020-12-19,0,34
2020-12-20,1,38
2020-12-21,1,35
2020-12-22,0,44
2020-12-23,0,40
2020-12-24,1,41
2020-12-25,1,36
2020-12-26,0,42
2020-12-27,0,42
2020-12-28,0,28
2020-12-29,0,43
2020-12-30,1,46
2020-12-31,0,42
2021-01-01,1,39
2021-01-02,1,49
2021-01-03,0,36
2021-01-04,0,36
2021-01-05,0,40
2021-01-06,0,38
2021-01-07,0,34
2021-01-08,1,34
2021-01-09,2,42
2021-01-10,1,37
2021-01-11,1,48
2021-01-12,1,48
2021-01-13,1,36
2021-01-14,0,45
2021-01-15,2,36
2021-01-16,0,40
2021-01-17,1,37
2021-01-18,0,39
2021-01-19,0,48
2021-01-20,1,38
2021-01-21,3,45
2021-01-22,0,39
2021-01-23,0,40
2021-01-24,0,38
2021-01-25,1,38
2021-01-26,1,38
2021-01-27,1,40
2021-01-28,0,43
2021-01-29,0,48
2021-01-30,1,33
2021-01-31,0,42
2021-02-01,0,35
2021-02-02,0,41
2021-02-03,1,45
2021-02-04,0,42
2021-02-05,1,39
2021-02-06,2,42
2021-02-07,2,38
2021-02-08,0,40
2021-02-09,1,34
2021-02-10,0,39
2021-02-11,0,44
2021-02-12,2,30
2021-02-13,1,34
2021-02-14,4,30
2021-02-15,0,43
2021-02-16,2,48
2021-02-17,0,41
2021-02-18,1,55
2021-02-19,0,48
2021-02-20,0,40
2021-02-21,0,41
2021-02-22,0,45
2021-02-23,0,41
2021-02-24,2,45
2021-02-25,0,46
2021-02-26,1,45
2021-02-27,1,50
2021-02-28,1,52
2021-03-01,0,58
2021-03-02,1,51
2021-03-03,0,52
2021-03-04,0,51
2021-03-05,0,60
2021-03-06,2,57
2021-03-07,0,52
2021-03-08,0,40
2021-03-09,0,38
2021-03-10,0,39
2021-03-11,0,50
2021-03-12,2,49
2021-03-13,0,38
2021-03-14,2,44
2021-03-15,0,38
2021-03-16,0,43
2021-03-17,1,37
2021-03-18,0,38
2021-03-19,0,36
2021-03-20,1,32
2021-03-21,1,30
2021-03-22,1,36
2021-03-23,0,37
2021-03-24,1,30
2021-03-25,3,41
2021-03-26,2,39
2021-03-27,2,43
2021-03-28,0,37
2021-03-29,1,43
2021-03-30,0,39
2021-03-31,1,42
2021-04-01,0,33
2021-04-02,0,30
2021-04-03,1,34
2021-04-04,1,34
2021-04-05,0,41
2021-04-06,0,45
2021-04-07,0,39
2021-04-08,0,43
2021-04-09,0,35
2021-04-10,2,43
2021-04-11,0,38
2021-04-12,1,34
2021-04-13,0,38
2021-04-14,3,38
2021-04-15,1,31
2021-04-16,0,63
2021-04-17,1,53
2021-04-18,0,59
2021-04-19,0,48
2021-04-20,1,60
2021-04-21,4,50
2021-04-22,1,60
2021-04-23,0,53
2021-04-24,2,53
2021-04-25,2,57
2021-04-26,0,57
2021-04-27,0,51
2021-04-28,0,62
2021-04-29,0,54
2021-04-30,3,52
2021-05-01,2,56
2021-05-02,0,50
2021-05-03,0,62
2021-05-04,2,55
2021-05-05,0,53
2021-05-06,3,59
2021-05-07,0,52
2021-05-08,1,61
2021-05-09,0,64
2021-05-10,0,53
2021-05-11,0,51
2021-05-12,2,64
2021-05-13,0,57
2021-05-14,0,65
2021-05-15,2,57
2021-05-16,0,66
2021-05-17,0,51
2021-05-18,0,69
2021-05-19,2,56
2021-05-20,2,60
2021-05-21,0,57
2021-05-22,0,60
2021-05-23,0,69
2021-05-24,0,65
2021-05-25,0,59
2021-05-26,0,62
2021-05-27,0,62
2021-05-28,0,60
2021-05-29,0,66
2021-05-30,0,58
2021-05-31,0,64
2021-06-01,0,60
2021-06-02,0,53
2021-06-03,0,58
2021-06-04,1,73
2021-06-05,0,44
2021-06-06,1,50
2021-06-07,1,52
2021-06-08,1,51
2021-06-09,1,57
2021-06-10,1,65
2021-06-11,0,60
2021-06-12,1,61
2021-06-13,0,55
2021-06-14,0,56
2021-06-15,0,63
2021-06-16,0,63
2021-06-17,0,61
2021-06-18,1,63
2021-06-19,1,63
2021-06-20,1,59
2021-06-21,2,56
2021-06-22,2,58
2021-06-23,2,59
2021-06-24,1,59
2021-06-25,0,58
2021-06-26,1,65
2021-06-27,1,70
2021-06-28,0,57
2021-06-29,0,60
2021-06-30,0,61
2021-07-01,0,67
2021-07-02,0,56
2021-07-03,1,63
2021-07-04,0,65
2021-07-05,0,71
2021-07-06,0,75
2021-07-07,1,65
2021-07-08,0,71
2021-07-09,4,61
2021-07-10,2,72
2021-07-11,1,67
2021-07-12,0,61
2021-07-13,0,67
2021-07-14,0,61
2021-07-15,0,64
2021-07-16,1,66
2021-07-17,2,64
2021-07-18,2,2
2021-07-19,0,25
2021-07-20,0,64
2021-07-21,1,59
2021-07-22,0,63
2021-07-23,0,68
2021-07-24,0,62
2021-07-25,1,70
2021-07-26,0,62
2021-07-27,0,65
2021-07-28,0,62
2021-07-29,0,60
2021-07-30,0,69
2021-07-31,0,71
2021-08-01,2,73
2021-08-02,1,67
2021-08-03,0,68
2021-08-04,0,68
2021-08-05,0,72
2021-08-06,1,76
2021-08-07,1,64
2021-08-08,4,61
2021-08-09,3,72
2021-08-10,0,70
2021-08-11,0,67
2021-08-12,0,59
2021-08-13,1,71
2021-08-14,0,66
2021-08-15,0,65
2021-08-16,0,71
2021-08-17,1,68
2021-08-18,1,67
2021-08-19,0,70
2021-08-20,0,73
2021-08-21,0,67
2021-08-22,0,74
2021-08-23,0,69
2021-08-24,0,68
2021-08-25,0,72
2021-08-26,1,61
2021-08-27,1,75
2021-08-28,2,67
2021-08-29,2,72
2021-08-30,2,75
2021-08-31,1,78
2021-09-01,1,65
2021-09-02,1,68
2021-09-03,1,65
2021-09-04,2,68
2021-09-05,1,73
2021-09-06,0,65
2021-09-07,1,68
2021-09-08,1,63
2021-09-09,1,70
2021-09-10,1,73
2021-09-11,1,77
2021-09-12,0,71
2021-09-13,1,76
2021-09-14,0,64
2021-09-15,0,69
2021-09-16,1,66
2021-09-17,1,71
2021-09-18,0,68
2021-09-19,0,74
2021-09-20,1,75
2021-09-21,1,61
2021-09-22,1,70
2021-09-23,1,79
2021-09-24,3,71
2021-09-25,0,74
2021-09-26,1,77
2021-09-27,0,70
2021-09-28,0,67
2021-09-29,0,75
2021-09-30,0,70
2021-10-01,0,80
2021-10-02,1,76
2021-10-03,0,74
2021-10-04,1,78
2021-10-05,0,74
2021-10-06,0,80
2021-10-07,0,76
2021-10-08,0,73
2021-10-09,0,80
2021-10-10,1,77
2021-10-11,4,80
2021-10-12,0,75
2021-10-13,1,75
2021-10-14,0,73
2021-10-15,0,77
2021-10-16,0,77
2021-10-17,0,89
2021-10-18,1,67
2021-10-19,1,88
2021-10-20,0,79
2021-10-21,0,76
2021-10-22,0,69
2021-10-23,0,64
2021-10-24,2,80
2021-10-25,0,71
2021-10-26,0,78
2021-10-27,2,78
2021-10-28,1,76
2021-10-29,0,82
2021-10-30,2,80
2021-10-31,0,80
2021-11-01,0,68
2021-11-02,0,74
2021-11-03,0,75
2021-11-04,0,84
2021-11-05,1,77
2021-11-06,0,83
2021-11-07,1,80
2021-11-08,1,76
2021-11-09,1,78
2021-11-10,0,78
2021-11-11,1,72
2021-11-12,1,79
2021-11-13,0,74
2021-11-14,1,73
2021-11-15,2,77
2021-11-16,1,78
2021-11-17,1,78
2021-11-18,0,83
2021-11-19,0,86
2021-11-20,1,80
2021-11-21,0,71
2021-11-22,1,80
2021-11-23,1,72
2021-11-24,2,80
2021-11-25,0,71
2021-11-26,0,87
2021-11-27,0,75
2021-11-28,2,79
2021-11-29,2,90
2021-11-30,1,77
2021-12-01,0,77
2021-12-02,0,73
2021-12-03,0,87
2021-12-04,1,78
2021-12-05,1,82
2021-12-06,0,91
2021-12-07,0,78
2021-12-08,0,79
2021-12-09,0,83
2021-12-10,1,79
2021-12-11,1,77
2021-12-12,0,77
2021-12-13,0,89
2021-12-14,2,80
2021-12-15,0,79
2021-12-16,0,83
2021-12-17,1,84
2021-12-18,0,88
2021-12-19,2,74
2021-12-20,0,79
2021-12-21,0,77
2021-12-22,0,91
2021-12-23,2,75
2021-12-24,0,84
2021-12-25,0,78
2021-12-26,0,73
2021-12-27,0,84
2021-12-28,3,91
2021-12-29,1,78
2021-12-30,2,87
2021-12-31,1,87
2022-01-01,2,81
2022-01-02,3,87
2022-01-03,2,87
2022-01-04,1,85
2022-01-05,3,87
2022-01-06,2,90
2022-01-07,3,81
2022-01-08,0,85
2022-01-09,0,2
2022-01-10,0,0
2022-01-11,0,93
2022-01-12,0,85
2022-01-13,1,89
2022-01-14,0,81
2022-01-15,2,86
2022-01-16,0,88
2022-01-17,1,82
2022-01-18,1,87
2022-01-19,0,83
2022-01-20,0,91
2022-01-21,1,89
2022-01-22,1,83
2022-01-23,1,88
2022-01-24,1,96
2022-01-25,1,78
2022-01-26,0,88
2022-01-27,1,88
2022-01-28,1,81
2022-01-29,1,96
2022-01-30,0,89
2022-01-31,0,87
2022-02-01,2,82
2022-02-02,0,93
2022-02-03,0,91
2022-02-04,4,87
2022-02-05,0,84
2022-02-06,1,73
2022-02-07,2,92
2022-02-08,2,99
2022-02-09,0,96
2022-02-10,1,86
2022-02-11,1,84
2022-02-12,0,95
2022-02-13,0,86
2022-02-14,0,85
2022-02-15,0,81
2022-02-16,0,85
2022-02-17,0,94
2022-02-18,0,93
2022-02-19,0,94
2022-02-20,1,84
2022-02-21,0,92
2022-02-22,0,86
2022-02-23,0,92
2022-02-24,1,86
2022-02-25,2,85
2022-02-26,0,86
2022-02-27,1,85
2022-02-28,0,90
2022-03-01,0,90
2022-03-02,1,83
2022-03-03,1,85
2022-03-04,1,86
2022-03-05,1,82
2022-03-06,2,89
2022-03-07,0,88
2022-03-08,1,89
2022-03-09,1,103
2022-03-10,2,76
2022-03-11,1,89
2022-03-12,1,91
2022-03-13,0,90
2022-03-14,0,84
2022-03-15,1,86
2022-03-16,1,82
2022-03-17,1,82
2022-03-18,2,90
2022-03-19,0,82
2022-03-20,0,87
2022-03-21,0,89
2022-03-22,0,90
2022-03-23,0,93
2022-03-24,0,95
2022-03-25,0,96
2022-03-26,0,93
2022-03-27,0,96
2022-03-28,0,80
2022-03-29,0,88
2022-03-30,0,79
2022-03-31,0,92
2022-04-01,0,87
2022-04-02,1,88
2022-04-03,0,89
2022-04-04,2,89
2022-04-05,0,82
2022-04-06,1,90
2022-04-07,0,91
2022-04-08,0,77
2022-04-09,3,90
2022-04-10,0,89
2022-04-11,2,89
2022-04-12,0,91
2022-04-13,0,88
2022-04-14,2,86
2022-04-15,0,86
2022-04-16,1,87
2022-04-17,0,91
2022-04-18,0,95
2022-04-19,1,95
2022-04-20,0,94
2022-04-21,1,90
2022-04-22,1,94
2022-04-23,1,88
2022-04-24,0,89
2022-04-25,0,92
2022-04-26,0,86
2022-04-27,1,93
2022-04-28,1,92
2022-04-29,0,92
2022-04-30,0,84
2022-05-01,0,86
2022-05-02,0,93
2022-05-03,0,98
2022-05-04,1,85
2022-05-05,1,81
2022-05-06,1,87
2022-05-07,1,88
2022-05-08,3,93
2022-05-09,0,105
2022-05-10,1,95
2022-05-11,2,91
2022-05-12,2,95
2022-05-13,1,91
2022-05-14,1,100
2022-05-15,2,91
2022-05-16,1,97
2022-05-17,1,94
2022-05-18,0,92
2022-05-19,0,99
2022-05-20,0,85
2022-05-21,1,88
2022-05-22,0,100
2022-05-23,1,92
2022-05-24,0,87
2022-05-25,3,96
2022-05-26,0,90
2022-05-27,1,98
2022-05-28,0,93
2022-05-29,0,93
2022-05-30,2,93
2022-05-31,1,96
2022-06-01,0,93
2022-06-02,0,96
2022-06-03,1,92
2022-06-04,2,94
2022-06-05,1,91
2022-06-06,0,91
2022-06-07,0,99
2022-06-08,0,96
2022-06-09,1,98
2022-06-10,2,93
2022-06-11,0,90
2022-06-12,0,89
2022-06-13,1,96
2022-06-14,1,95
2022-06-15,0,91
2022-06-16,0,96
2022-06-17,0,96
2022-06-18,0,99
2022-06-19,1,90
2022-06-20,1,96
2022-06-21,2,100
2022-06-22,1,97
2022-06-23,2,86
2022-06-24,2,106
2022-06-25,1,88
2022-06-26,0,96
2022-06-27,0,102
2022-06-28,0,87
2022-06-29,0,99
2022-06-30,0,88
2022-07-01,0,96
2022-07-02,0,92
2022-07-03,1,95
2022-07-04,0,102
2022-07-05,0,94
2022-07-06,0,97
2022-07-07,1,98
2022-07-08,1,95
2022-07-09,2,90
2022-07-10,1,95
2022-07-11,0,97
2022-07-12,0,95
2022-07-13,0,83
2022-07-14,1,94
2022-07-15,1,91
2022-07-16,0,94
2022-07-17,0,90
2022-07-18,0,86
2022-07-19,1,95
2022-07-20,0,85
2022-07-21,0,106
2022-07-22,1,88
2022-07-23,0,86
2022-07-24,1,69
2022-07-25,1,85
2022-07-26,1,96
2022-07-27,0,104
2022-07-28,0,104
2022-07-29,0,101
2022-07-30,2,91
2022-07-31,1,99
2022-08-01,1,97
2022-08-02,0,92
2022-08-03,0,90
2022-08-04,0,90
2022-08-05,0,99
2022-08-06,0,94
2022-08-07,0,85
2022-08-08,2,95
2022-08-09,0,93
2022-08-10,0,103
2022-08-11,0,88
2022-08-12,0,105
2022-08-13,2,96
2022-08-14,2,89
2022-08-15,2,105
2022-08-16,1,103
2022-08-17,0,102
2022-08-18,0,96
2022-08-19,1,102
2022-08-20,0,93
2022-08-21,1,83
2022-08-22,0,100
2022-08-23,0,95
2022-08-24,0,103
2022-08-25,1,98
2022-08-26,0,105
2022-08-27,0,86
2022-08-28,2,105
2022-08-29,0,101
2022-08-30,1,99
2022-08-31,0,97
2022-09-01,1,93